Weather History for KPTK - July, 2013

Change the Weather History Date:

Sunday, July 28, 2013

  Actual Average Record
Temperature  
Mean Temperature 56 °F -  
Max Temperature 62 °F 79 °F 91 °F (2015)
Min Temperature 51 °F 59 °F 51 °F (2013)
Degree Days  
Heating Degree Days 8    
Growing Degree Days 6 (Base 50)    
Moisture  
Dew Point 51 °F    
Average Humidity 81    
Maximum Humidity 89    
Minimum Humidity 69    
Precipitation  
Precipitation 0.10 in - - ()
Sea Level Pressure  
Sea Level Pressure 29.89 in    
Wind  
Wind Speed 7 mph (SW)    
Max Wind Speed 14 mph    
Max Gust Speed 21 mph    
Visibility 10 miles    
Events Rain    
Averages and records for this station are not official NWS values.
T = Trace of Precipitation, MM = Missing Value Source: NWS Daily Summary

Daily Weather History Graph

Daily Weather History Graph

Search for Another Location

Airport or City:

Trip Planner

Search our weather history database for the weather conditions in past years. The results will help you decide how hot, cold, wet, or windy it might be!

Date:

Astronomy

Jul. 28, 2013 Rise Set
Actual Time 6:21 AM EDT 8:58 PM EDT
Civil Twilight 5:49 AM EDT 9:30 PM EDT
Nautical Twilight 5:08 AM EDT 10:10 PM EDT
Astronomical Twilight 4:22 AM EDT 10:56 PM EDT
Moon No Moon Rise 1:13 PM EDT (7/28)
Length of Visible Light 15h 41m
Length of Day
14h 36m
Waning Gibbous, 61% of the Moon is Illuminated
Jul 28
Waning Gibbous
Jul 29
Last Quarter
Aug 6
New
Aug 14
First Quarter
Aug 20
Full

Hourly Weather History & Observations

Time (EDT) Temp. Dew Point Humidity Pressure Visibility Wind Dir Wind Speed Gust Speed Precip Events Conditions
12:53 AM 54.0 °F 48.9 °F 83% 29.84 in 10.0 mi WSW 6.9 mph - N/A   Mostly Cloudy
1:53 AM 54.0 °F 48.9 °F 83% 29.83 in 10.0 mi WSW 9.2 mph - N/A   Mostly Cloudy
2:53 AM 52.0 °F 48.9 °F 89% 29.83 in 10.0 mi SW 5.8 mph - N/A   Clear
3:53 AM 51.1 °F 48.0 °F 89% 29.84 in 10.0 mi WSW 5.8 mph - N/A   Clear
4:53 AM 51.1 °F 48.0 °F 89% 29.85 in 10.0 mi WSW 5.8 mph - N/A   Clear
5:53 AM 51.1 °F 48.0 °F 89% 29.85 in 10.0 mi SSW 3.5 mph - N/A   Clear
6:53 AM 52.0 °F 48.9 °F 89% 29.85 in 10.0 mi South 4.6 mph - N/A   Mostly Cloudy
7:53 AM 54.0 °F 50.0 °F 86% 29.86 in 10.0 mi South 5.8 mph - N/A   Mostly Cloudy
8:53 AM 55.0 °F 50.0 °F 83% 29.87 in 10.0 mi South 9.2 mph - N/A   Mostly Cloudy
9:53 AM 57.9 °F 48.9 °F 72% 29.87 in 10.0 mi SSW 8.1 mph 17.3 mph N/A   Mostly Cloudy
10:28 AM 57.2 °F 50.0 °F 77% 29.88 in 10.0 mi SSW 10.4 mph - N/A   Overcast
10:53 AM 57.9 °F 50.0 °F 75% 29.88 in 10.0 mi WSW 9.2 mph - N/A   Overcast
11:53 AM 60.1 °F 52.0 °F 75% 29.88 in 10.0 mi WSW 8.1 mph - 0.00 in   Overcast
12:53 PM 59.0 °F 48.9 °F 69% 29.88 in 10.0 mi SW 10.4 mph 18.4 mph N/A   Overcast
1:53 PM 57.0 °F 52.0 °F 83% 29.89 in 4.0 mi WSW 10.4 mph 19.6 mph 0.01 in Rain Rain
2:53 PM 62.1 °F 53.1 °F 72% 29.88 in 10.0 mi SW 9.2 mph - 0.01 in   Mostly Cloudy
3:53 PM 57.9 °F 53.1 °F 84% 29.90 in 6.0 mi NW 13.8 mph - 0.01 in Rain Light Rain
4:53 PM 62.1 °F 52.0 °F 70% 29.90 in 10.0 mi SW 12.7 mph 20.7 mph 0.03 in   Mostly Cloudy
5:53 PM 60.1 °F 54.0 °F 80% 29.91 in 10.0 mi SSW 8.1 mph - 0.03 in   Mostly Cloudy
6:53 PM 60.1 °F 53.1 °F 78% 29.91 in 10.0 mi SW 8.1 mph - 0.00 in   Mostly Cloudy
7:53 PM 59.0 °F 54.0 °F 83% 29.94 in 10.0 mi NW 3.5 mph - 0.01 in   Mostly Cloudy
8:53 PM 57.0 °F 52.0 °F 83% 29.95 in 10.0 mi SW 3.5 mph - 0.00 in   Mostly Cloudy
9:53 PM 57.0 °F 52.0 °F 83% 29.96 in 10.0 mi WSW 4.6 mph - N/A   Scattered Clouds
10:53 PM 55.9 °F 51.1 °F 84% 29.97 in 10.0 mi WSW 4.6 mph - N/A   Scattered Clouds
11:53 PM 57.0 °F 51.1 °F 81% 29.97 in 10.0 mi WSW 4.6 mph - N/A   Scattered Clouds